Terug naar catalogus

STARLINK-35244

ActiefCommunicatieVLEO
NORAD 65829·PAYLOAD·🇺🇸 United States

Gelanceerd Sep 29, 2025 vanaf Vandenberg Space Force Base

Loading…

Volgende Passages (komende 24 uur)

TLE

VersSource: CelesTrak SupGP

Epoch: Sep 14, 2026, 20:51 UTC

1 65829C 25221G   26257.86923611  .00015545  00000+0  50009-3 0  2573
2 65829  53.1574 291.2016 0001125  89.8214 356.3064 15.31681106    19

Volg STARLINK-35244 in realtime met AllMySat

Download on the App Store